This is the latest recevied weather packets stored in our database for station/object GCEMA. If no packets are shown the sender has not sent any weather packets the latest 10 day(s).
| Time | Temp. | Humidity | Pressure | Rain* | Wind** | Luminosity | Snow |
|---|---|---|---|---|---|---|---|
| 1777883757 | 14.44° C | - | 1006.9 hPa | 0 mm | 0 m/s | - | - |
| 1777883394 | 13.89° C | - | 1007.2 hPa | 0 mm | 0 m/s | - | - |
| 1777883217 | 15° C | - | 1007 hPa | 0 mm | 0 m/s | - | - |
| 1777883035 | 15° C | - | 1007.2 hPa | 0 mm | 0 m/s | - | - |
| 1777882857 | 15° C | - | 1007.2 hPa | 0 mm | 0 m/s | - | - |
| 1777882676 | 15.56° C | - | 1007.3 hPa | 0 mm | 0 m/s | - | - |
| 1777882494 | 16.11° C | - | 1007.5 hPa | 0 mm | 0 m/s | - | - |
| 1777882314 | 15.56° C | - | 1007.6 hPa | 0 mm | 0 m/s | - | - |
| 1777882135 | 16.11° C | - | 1007.9 hPa | 0 mm | 0 m/s | - | - |
| 1777881955 | 16.11° C | - | 1007.8 hPa | 0 mm | 0 m/s | - | - |
| 1777881776 | 16.11° C | - | 1007.6 hPa | 0 mm | 0 m/s | - | - |
| 1777881593 | 15.56° C | - | 1007.4 hPa | 0 mm | 0 m/s | - | - |
| 1777881415 | 16.67° C | - | 1007.1 hPa | 0 mm | 0 m/s | - | - |
| 1777881234 | 16.67° C | - | 1007 hPa | 0 mm | 0 m/s | - | - |
| 1777881055 | 16.67° C | - | 1006.8 hPa | 0 mm | 0 m/s | - | - |
| 1777880875 | 17.22° C | - | 1006.7 hPa | 0 mm | 0 m/s | - | - |
| 1777880694 | 18.33° C | - | 1006.5 hPa | 0 mm | 0 m/s | - | - |
| 1777880513 | 17.78° C | - | 1006.5 hPa | 0 mm | 0 m/s | - | - |
| 1777880154 | 18.33° C | - | 1006.7 hPa | 0 mm | 0 m/s | - | - |
| 1777879974 | 18.33° C | - | 1006.6 hPa | 0 mm | 0 m/s | - | - |
| 1777879792 | 18.33° C | - | 1006.6 hPa | 0 mm | 0 m/s | - | - |
| 1777879612 | 18.33° C | - | 1006.6 hPa | 0 mm | 0 m/s | - | - |
| 1777879433 | 18.33° C | - | 1006.6 hPa | 0 mm | 0 m/s | - | - |
| 1777879074 | 18.89° C | - | 1006.7 hPa | 0 mm | 0 m/s | - | - |
| 1777878353 | 18.33° C | - | 1006.8 hPa | 0 mm | 0 m/s | - | - |
* Rain latest hour (hover to see other rain measurements)
** Current wind speed in m/s (hover to see current wind gust speed)